| time (UTC) | temp C | wind direction | speed KPH | gust KPH | rain 1hr cm | rain 24hr cm | rain mn cm | humidity % | barometer mb |
| 20260504081530 | 7 | 34 | 33.8 | 53.1 | 0.00 | 0.00 | 0.00 | 63 | 1015.1 |
| 20260504044534 | 12 | 39 | 38.6 | 54.7 | 0.00 | 0.00 | 0.00 | 42 | 1010.5 |
| 20260504043036 | 13 | 34 | 45.1 | 57.9 | 0.00 | 0.00 | 0.00 | 42 | 1009.9 |
| 20260504041530 | 12 | 26 | 24.1 | 30.6 | 0.00 | 0.00 | 0.00 | 43 | 1009.4 |
| 20260504040032 | 13 | 22 | 22.5 | 27.4 | 0.00 | 0.00 | 0.00 | 41 | 1009.1 |
| 20260504034531 | 13 | 30 | 20.9 | 30.6 | 0.00 | 0.00 | 0.00 | 40 | 1008.7 |
| 20260504033033 | 13 | 30 | 24.1 | 32.2 | 0.00 | 0.00 | 0.00 | 39 | 1008.4 |
| 20260504031532 | 14 | 33 | 22.5 | 32.2 | 0.00 | 0.00 | 0.00 | 38 | 1008.2 |
| 20260504030031 | 15 | 25 | 30.6 | 40.2 | 0.00 | 0.00 | 0.00 | 36 | 1007.9 |
| 20260504024535 | 16 | 26 | 25.7 | 43.5 | 0.00 | 0.00 | 0.00 | 34 | 1007.7 |
| 20260504023030 | 16 | 26 | 22.5 | 30.6 | 0.00 | 0.00 | 0.00 | 31 | 1007.6 |
| 20260504021532 | 18 | 26 | 25.7 | 35.4 | 0.00 | 0.00 | 0.00 | 28 | 1007.6 |
| 20260504020032 | 19 | 9 | 16.1 | 25.7 | 0.00 | 0.00 | 0.00 | 23 | 1007.5 |
| 20260504014531 | 20 | 355 | 25.7 | 37.0 | 0.00 | 0.00 | 0.00 | 21 | 1007.7 |
| 20260504013037 | 21 | 351 | 29.0 | 35.4 | 0.00 | 0.00 | 0.00 | 20 | 1007.6 |
| 20260504011530 | 21 | 360 | 29.0 | 38.6 | 0.00 | 0.00 | 0.00 | 20 | 1007.6 |
| 20260504010031 | 21 | 336 | 27.4 | 41.8 | 0.00 | 0.00 | 0.00 | 20 | 1007.6 |
| 20260504004530 | 21 | 330 | 25.7 | 43.5 | 0.00 | 0.00 | 0.00 | 20 | 1007.7 |
| 20260504003040 | 21 | 348 | 24.1 | 43.5 | 0.00 | 0.00 | 0.00 | 20 | 1007.9 |
| 20260504001530 | 22 | 360 | 25.7 | 38.6 | 0.00 | 0.00 | 0.00 | 20 | 1008.1 |
| 20260504000028 | 21 | 345 | 22.5 | 38.6 | 0.00 | 0.00 | 0.00 | 20 | 1008.3 |
| 20260503234533 | 22 | 337 | 25.7 | 41.8 | 0.00 | 0.00 | 0.00 | 20 | 1008.3 |
| 20260503233038 | 22 | 342 | 30.6 | 41.8 | 0.00 | 0.00 | 0.00 | 20 | 1008.3 |
| 20260503231531 | 21 | 310 | 12.9 | 33.8 | 0.00 | 0.00 | 0.00 | 21 | 1008.3 |
| 20260503230030 | 22 | 355 | 24.1 | 41.8 | 0.00 | 0.00 | 0.00 | 21 | 1008.2 |
| 20260503224530 | 21 | 306 | 14.5 | 38.6 | 0.00 | 0.00 | 0.00 | 21 | 1008.4 |
| 20260503223030 | 21 | 355 | 20.9 | 45.1 | 0.00 | 0.00 | 0.00 | 21 | 1008.4 |
| 20260503221530 | 21 | 306 | 14.5 | 46.7 | 0.00 | 0.00 | 0.00 | 21 | 1008.6 |
| 20260503220030 | 21 | 316 | 16.1 | 35.4 | 0.00 | 0.00 | 0.00 | 21 | 1008.9 |
| 20260503214532 | 21 | 335 | 27.4 | 40.2 | 0.00 | 0.00 | 0.00 | 22 | 1009.0 |
| 20260503213033 | 21 | 309 | 25.7 | 37.0 | 0.00 | 0.00 | 0.00 | 22 | 1009.2 |
| 20260503211530 | 21 | 323 | 11.3 | 38.6 | 0.00 | 0.00 | 0.00 | 21 | 1009.5 |
| 20260503210028 | 21 | 324 | 16.1 | 35.4 | 0.00 | 0.00 | 0.00 | 22 | 1009.7 |
| 20260503204528 | 21 | 327 | 19.3 | 33.8 | 0.00 | 0.00 | 0.00 | 22 | 1009.8 |
| 20260503203036 | 20 | 283 | 17.7 | 35.4 | 0.00 | 0.00 | 0.00 | 23 | 1010.0 |
| 20260503201532 | 21 | 294 | 19.3 | 32.2 | 0.00 | 0.00 | 0.00 | 22 | 1010.4 |
| 20260503200034 | 20 | 308 | 19.3 | 40.2 | 0.00 | 0.00 | 0.00 | 23 | 1010.6 |
| 20260503194531 | 20 | 324 | 27.4 | 46.7 | 0.00 | 0.00 | 0.00 | 20 | 1010.7 |
| 20260503193030 | 20 | 296 | 17.7 | 33.8 | 0.00 | 0.00 | 0.00 | 20 | 1010.9 |
| 20260503191528 | 20 | 312 | 24.1 | 37.0 | 0.00 | 0.00 | 0.00 | 22 | 1011.2 |
| 20260503190032 | 20 | 281 | 19.3 | 35.4 | 0.00 | 0.00 | 0.00 | 21 | 1011.2 |
| 20260503184536 | 20 | 259 | 20.9 | 38.6 | 0.00 | 0.00 | 0.00 | 22 | 1011.3 |
| 20260503183029 | 20 | 313 | 27.4 | 37.0 | 0.00 | 0.00 | 0.00 | 22 | 1011.5 |
| 20260503181529 | 20 | 269 | 20.9 | 40.2 | 0.00 | 0.00 | 0.00 | 23 | 1011.6 |
| 20260503180035 | 20 | 306 | 16.1 | 37.0 | 0.00 | 0.00 | 0.00 | 24 | 1011.8 |
| 20260503174532 | 19 | 286 | 29.0 | 43.5 | 0.00 | 0.00 | 0.00 | 24 | 1012.0 |
| 20260503173034 | 20 | 298 | 20.9 | 38.6 | 0.00 | 0.00 | 0.00 | 25 | 1012.2 |
| 20260503171537 | 19 | 286 | 16.1 | 35.4 | 0.00 | 0.00 | 0.00 | 24 | 1012.2 |